Simultaneous Nadir Overpasses (SNOs) Predictions

Prediction of SNOs between LANDSAT-8 and METOP-A Satellite Orbit:

Table of predicted SNOs for the next 14.0 days since TLE Epoch: 9/4/2015
Index Date (LANDSAT-8) Time (LANDSAT-8) Lat,Lon (LANDSAT-8) SZA (LANDSAT-8 ) Date (METOP-A) Time (METOP-A) Lat,Lon (METOP-A) SZA (METOP-A ) Distance(km) Time Diff (sec)
1 09/07/2015 05:58:29 81.23, 132.09 77.34 09/07/2015 05:57:27 81.23, 132.22 77.32 2.24 62
2 09/07/2015 06:47:54 -81.25, -59.94 102.61 09/07/2015 06:48:06 -81.24, -60.09 102.62 2.56 12
3 09/10/2015 01:32:45 81.22,-161.59 78.40 09/10/2015 01:31:48 81.22,-161.77 78.35 3.08 57
4 09/10/2015 02:22:11 -81.24, 6.40 101.54 09/10/2015 02:22:27 -81.24, 6.31 101.55 1.50 16
5 09/12/2015 21:07:01 81.23, -94.96 79.52 09/12/2015 21:06:08 81.23, -95.02 79.48 1.17 53
6
